Погода в Сагунах

Россия / Воронежская область     50°35′58″N   39°36′41″E
темп.,
°C
ветер,
м/с
пор.,
м/с
влажн.,
%
обл.,
%
осадки,
мм/ч
давл.,
гПа
погр.,
м
17 сентября, пт
пт1700:00+9с22510 0.0 101914
03:00+7св115655 0.0 101910
06:00+7ссз115899 0.0 101910
09:00+13з114146 0.0 1018337
12:00+18зюз2332100 0.0 10171551
15:00+20зюз232833 0.0 10151911
18:00+17сз0134100 0.0 101511
21:00+16св3437100 0.0 1015139
18 сентября, сб
сб1800:00+14всв61046100 0.0 1016452
03:00+12всв61053100 0.0 1016381
06:00+11в61160100 0.0 1016407
09:00+10в71268100 0.0 1017455
12:00+12в71062100 0.0 1017557
15:00+14в794999 0.0 1017711
18:00+11в8136396 0.0 1016476
21:00+11в81661100 0.0 1016507
19 сентября, вс
вс1900:00+11вюв71556100 0.0 1016493
03:00+11вюв7145588 0.0 1015480
06:00+11вюв7155690 0.0 1014465
09:00+13юв71249100 0.1 1014643
12:00+13юв61168100 1.7 1014760
15:00+11юв71292100 5.7 1013520
18:00+13юв51296100 5.8 1011585
21:00+12вюв61295100 12.9 1011456
20 сентября, пн
пн2000:00+13юв5109485 0.6 1010361
03:00+14ююв369690 0.7 1009230
06:00+12ююв359899 0.0 1009116
09:00+16ю4684100 0.1 1010356
12:00+18юз4664100 0.1 1009618
15:00+20юз5851100 1.0 10101658
18:00+16зюз4765100 0.1 1010159
21:00+15ю2370100 0.2 101196
21 сентября, вт
вт2100:00+12сз247178 0.0 1012147
03:00+9зсз357883 0.0 1013104
06:00+8з3580100 0.0 1014134
09:00+11зюз4566100 0.0 1015613
12:00+14зюз4557100 0.0 10151221
15:00+15зюз455593 0.0 10141404
18:00+12з466363 0.0 1015642
21:00+10зюз117294 0.0 101453